#timestamp,LO_Frequency,Hit,StdDev 
1586383215.7,286047001.8,N
1586383235.5,286047004.0,N
1586383255.3,286047002.0,N
1586383275.2,286047000.8,N
1586383295.0,286047000.2,N
1586383295.9,286047000.2,N
1586383315.7,286047002.3,N
1586383335.6,286046998.5,N
1586383355.4,286047002.8,N
1586383375.3,286047002.6,N
1586383395.1,286046999.8,N
1586383415.8,286047000.4,N
1586383435.7,286047000.2,N
1586383455.5,286047000.5,N
1586383475.4,286047001.0,N
1586383495.2,286047000.3,N
1586383515.0,286046998.4,N
1586383515.9,286046998.4,N
1586383535.8,286047002.6,N
1586383555.6,286047001.8,N
1586383575.4,286047001.4,N
1586383595.3,286047003.0,N
1586383615.1,286047005.5,Y
1586383635.9,286047000.2,P
1586383655.7,286047000.5,N
1586383675.6,286047002.5,P
1586383695.4,286046998.9,N
1586383715.2,286046999.2,N
1586383735.1,286046998.1,N
1586383736.0,286046998.1,N
1586383755.8,286046999.8,N
1586383775.6,286047002.4,N
1586383795.5,286047004.1,N
1586383815.3,286047002.6,N
1586383835.2,286047002.7,N
1586383855.9,286047002.4,N
1586383875.7,286047002.3,N
1586383895.6,286046999.0,N
1586383915.4,286046996.6,N
1586383935.3,286047000.9,N
1586383955.1,286046999.2,N
1586383956.0,286046999.2,N
1586383975.8,286046997.2,N
1586383995.7,286046996.5,N
1586384015.5,286046998.7,N
1586384035.3,286046999.3,N
1586384055.2,286046998.8,N
1586384075.0,286047002.7,N
1586384075.9,286047002.7,N
1586384095.8,286047000.4,N
1586384115.6,286047001.0,N
1586384135.5,286047001.9,N
1586384155.3,286047002.8,N
1586384175.1,286047004.0,N
1586384195.9,286047003.5,N
1586384215.7,286047004.3,N
1586384235.5,286047004.2,N
1586384255.4,286047001.8,N
1586384275.2,286047004.4,N
1586384295.1,286046999.7,N
1586384296.0,286046999.7,N
1586384315.8,286047000.2,N
1586384335.6,286047001.9,N
1586384355.5,286046998.6,N
1586384375.3,286047001.1,N
1586384395.2,286047002.5,N
1586384415.9,286047004.1,N
1586384435.7,286047005.7,N
1586384455.6,286047001.5,N
1586384475.4,286047001.1,N
1586384495.2,286047000.5,N
1586384515.1,286047002.7,N
1586384516.0,286047002.7,N
1586384535.8,286047000.3,N
1586384555.7,286047000.9,N
1586384575.5,286046999.7,N
1586384595.3,286047002.6,N
1586384615.2,286047001.6,N
1586384635.0,286047002.4,N
1586384635.9,286047002.4,N
1586384655.8,286047003.6,N
1586384675.6,286047002.7,N
1586384695.4,286047001.3,N
1586384715.3,286047003.3,N
1586384735.1,286047004.2,N
1586384755.9,286047001.5,N
1586384775.7,286047002.4,N
1586384795.5,286047005.5,Y
1586384815.4,286047002.8,P
1586384835.2,286046999.6,N
1586384855.0,286047000.8,N
1586384856.0,286047000.8,N
1586384875.8,286047000.6,N
1586384895.6,286047001.2,N
1586384915.5,286046999.8,N
1586384935.3,286047002.0,N
1586384955.1,286047000.5,N
1586384975.9,286046999.5,N
1586384995.7,286046998.0,N
1586385015.6,286046998.0,N
1586385035.4,286046997.3,N
1586385055.2,286046995.3,Y
1586385075.1,286046995.7,P
1586385076.0,286046995.7,N
1586385095.8,286046993.8,N
1586385115.7,286046996.0,N
1586385135.5,286046994.0,N
1586385155.3,286046995.7,N
1586385175.2,286046997.2,N
1586385195.0,286046998.0,N
1586385195.9,286046998.0,N
1586385215.7,286046995.2,N
1586385235.6,286046996.1,N
1586385255.4,286046996.1,N
1586385275.3,286046993.7,Y
1586385295.1,286047002.7,P
1586385315.9,286047000.4,N
1586385335.7,286046996.9,N
1586385355.5,286046998.9,N
1586385375.4,286046997.5,N
1586385395.2,286046997.8,N
1586385415.0,286046996.7,N
1586385415.9,286046996.7,N
1586385435.8,286046997.8,N
1586385455.6,286046997.8,N
1586385475.5,286046996.5,N
1586385495.3,286046996.5,N
1586385545.2,286046996.5,E
1586385555.1,286047000.7,N
1586385556.0,286047000.7,P
1586385575.8,286047002.8,P
1586385595.7,286047002.2,N
1586385615.5,286047000.0,N
1586385635.3,286047000.5,N
1586385655.2,286046998.4,N
1586385675.0,286046998.4,N
1586385675.9,286046998.4,N
1586385695.8,286046998.5,N
1586385715.6,286047001.2,N
1586385735.4,286046998.1,N
1586385755.3,286046998.4,N
1586385775.1,286046998.2,N
1586385795.9,286047001.2,N
1586385815.7,286046999.5,N
1586385835.5,286046996.7,N
1586385855.4,286046999.2,N
1586385875.2,286046999.4,N
1586385895.0,286046997.2,N
1586385895.9,286046997.2,N
1586385915.8,286046998.0,N
1586385935.6,286046995.2,N
1586385955.5,286046995.0,N
1586385975.3,286046993.4,Y
1586385995.1,286046995.5,P
1586386015.9,286046996.1,N
1586386035.7,286046995.3,P
1586386055.6,286046995.9,N
1586386075.4,286046996.4,N
1586386095.2,286046995.2,Y
1586386115.1,286047001.0,P
1586386116.0,286047001.0,N
1586386135.8,286047001.2,N
1586386155.7,286046998.4,N
1586386175.5,286046997.2,N
1586386195.3,286046996.9,N
1586386215.2,286046997.3,N
1586386235.0,286046996.6,N
1586386235.9,286046996.6,N
1586386255.7,286046996.7,N
1586386275.6,286046999.1,N
1586386295.4,286046996.8,N
1586386315.3,286046997.3,N
1586386335.1,286046998.9,N
1586386336.0,286046998.9,N
1586386355.8,286046997.1,N
1586386375.7,286046997.2,N
1586386395.5,286046997.2,N
1586386415.4,286046996.7,N
1586386435.2,286046996.5,N
1586386455.0,286046999.3,N
1586386455.9,286046999.3,N
1586386475.8,286046997.1,N
1586386495.6,286046999.1,N
1586386515.4,286046998.7,N
1586386535.3,286046998.6,N
1586386555.1,286047001.1,N
1586386575.9,286047000.6,N
1586386595.7,286047000.7,N
1586386615.5,286046999.3,N
1586386635.4,286046998.4,N
1586386655.2,286047001.2,N
1586386675.1,286047000.4,N
1586386676.0,286047000.4,N
1586386695.8,286047001.1,N
1586386715.6,286046998.9,N
1586386735.5,286046999.4,N
1586386755.3,286046998.9,N
1586386775.2,286047000.3,N
1586386795.9,286047000.1,N
